Location: Gleizolles
(44.4833°N, 6.7667°E)
Time: 15:23:52
(UTC+00:00)

deb Explorer IX - Pass Details

Date: 25 June 2024
Orbit: 510 x 878 km, 38.7° (Epoch: 21 July)

Event Time Altitude Azimuth Distance (km) Brightness Sun altitude
Rises 07:04:11 0° 234° (SW) 2,693 ? 31.6°
Reaches altitude 10° 07:06:33 10° 223° (SW) 1,846 ? 32.1°
Maximum altitude 07:10:14 29° 162° (SSE) 1,096 ? 32.7°
Drops below altitude 10° 07:14:16 10° 103° (ESE) 2,033 ? 33.4°
Sets 07:16:59 0° 92° (E) 3,019 ? 33.9°
